Theta_e
297 296 295 295 295 293 293 293 292 291 291 290 290 289 288 287 286 286 285 284 283 282 282 282 281 281 280 279 278 277 276 276 276 277 278 278 277 276 276 276 276 276 276
297 295 295 294 293 292 293 293 292 291 290 291 290 289 287 287 286 285 285 283 283 282 281 281 280 280 279 278 277 276 275 275 274 274 275 276 275 275 275 275 276 276 276
296 295 294 293 293 293 292 291 290 290 290 289 289 288 287 286 285 285 284 283 282 282 281 281 280 279 278 277 276 275 274 274 273 273 273 274 274 274 275 276 276 277 277
297 295 294 293 294 293 291 290 290 289 289 289 289 288 286 285 285 284 283 282 282 281 281 280 279 279 278 277 275 274 274 273 273 273 273 274 274 275 276 277 277 276 277
297 294 294 294 293 292 291 290 289 288 288 288 287 285 284 284 284 284 282 282 281 280 279 279 278 278 277 276 276 274 273 273 273 273 273 275 276 277 276 276 277 276 276
296 295 295 293 292 291 290 289 288 287 286 286 285 284 282 282 282 282 282 281 280 279 278 276 276 275 275 275 274 274 275 275 274 273 274 277 276 277 276 276 276 276 277
293 295 294 293 292 290 289 287 285 284 283 284 283 282 281 281 281 281 280 281 280 278 277 276 275 275 275 275 276 276 277 277 278 277 277 276 276 276 276 276 276 277 277
291 292 293 292 290 289 287 285 284 283 283 282 281 281 280 280 281 281 279 279 278 278 277 276 275 274 274 273 273 273 274 275 275 275 275 276 276 276 277 277 276 274 273
290 288 289 289 288 286 284 283 282 282 281 281 280 279 279 278 281 282 280 277 276 276 275 275 275 274 274 275 274 274 274 275 275 276 277 277 276 277 276 274 272 271 272
287 289 289 288 287 284 283 282 281 281 280 279 278 278 278 278 281 282 279 276 275 275 275 274 274 274 274 275 275 275 275 275 276 275 275 274 274 273 272 271 270 270 271
290 286 287 286 285 283 282 281 280 279 278 277 277 276 277 278 280 282 281 277 276 275 274 274 274 275 275 277 277 276 276 276 276 275 274 273 272 271 271 270 270 270 271
289 289 284 284 283 281 280 279 278 277 276 275 275 274 274 275 279 282 282 277 276 275 274 274 274 276 276 276 277 276 275 275 274 273 270 270 269 269 269 270 270 270 270
287 286 286 282 280 280 279 277 276 275 275 274 274 274 273 273 276 281 282 279 277 274 274 274 275 275 276 276 274 272 272 272 270 269 268 268 268 268 269 269 269 269 269
282 284 283 281 279 277 277 276 275 274 275 275 275 274 273 273 274 279 280 281 277 275 275 276 275 274 273 271 271 270 270 269 268 267 267 267 267 267 268 268 268 269 269
277 281 281 279 278 276 275 275 275 276 276 276 275 275 274 273 273 277 278 279 277 276 275 273 271 271 269 269 269 269 268 268 267 267 266 266 266 267 267 267 267 268 268
274 276 280 278 276 275 275 274 276 276 276 277 277 276 275 276 275 277 278 279 276 274 273 270 269 269 268 268 268 267 267 267 266 266 266 265 266 266 266 266 266 268 268
271 273 277 278 277 275 274 274 274 276 277 277 278 278 276 276 276 278 279 278 277 273 270 270 268 268 267 267 266 266 266 266 265 265 265 265 265 264 265 265 266 267 268
269 271 274 279 276 275 274 274 274 275 277 277 278 278 278 277 277 278 278 278 277 270 270 268 267 267 266 266 266 265 266 265 264 264 264 265 264 263 264 265 266 266 268
269 271 273 278 276 275 274 273 273 274 275 276 277 279 277 277 278 278 278 276 270 268 269 268 267 267 266 266 266 265 265 265 264 263 265 265 264 263 264 265 265 267 267
268 270 272 275 275 273 273 273 273 274 275 276 277 277 276 278 279 279 273 270 268 269 268 267 267 266 266 266 265 265 264 265 264 263 264 264 264 263 264 265 266 267 267
268 270 272 276 274 272 272 273 273 274 275 276 276 276 277 278 278 269 269 269 270 268 266 266 266 266 265 265 265 264 264 265 264 264 264 264 264 263 264 264 267 267 267
268 271 273 273 272 272 272 273 273 275 275 275 275 277 279 271 269 268 267 268 269 267 267 266 266 266 265 265 265 264 265 265 265 264 264 264 264 264 263 266 267 266 266
272 272 271 271 271 271 272 273 274 274 274 273 274 276 269 267 266 266 267 267 266 265 265 265 265 265 265 264 264 265 265 265 265 264 264 265 265 264 265 267 266 266 265
270 270 270 270 271 271 270 271 272 270 271 272 271 267 266 265 265 265 265 264 264 264 264 264 264 264 264 264 264 264 265 265 265 266 266 266 266 265 266 266 266 265 265
267 268 268 269 269 269 269 268 268 268 269 266 265 264 264 264 265 264 264 263 263 263 263 263 263 263 263 264 264 265 265 266 266 267 267 267 267 267 266 266 264 264 264
265 265 265 265 266 266 267 267 266 265 264 263 263 263 263 264 264 263 263 262 262 262 263 263 263 263 263 264 264 265 266 266 267 267 267 268 267 267 266 265 264 263 264
Wind_Speed
40 43 43 48 48 46 46 45 44 42 42 41 42 46 47 45 41 39 36 33 30 26 23 21 19 16 14 12 11 10 11 11 7 8 9 13 21 26 32 32 29 29 31
42 40 47 41 41 43 46 49 46 44 42 42 42 43 48 49 46 44 40 36 33 31 28 25 23 20 17 14 13 12 11 12 10 9 10 10 19 25 28 29 29 27 28
37 40 37 39 41 46 46 46 46 45 44 42 42 45 48 52 50 47 44 40 37 32 30 28 24 21 18 16 14 13 11 11 13 14 14 13 19 22 28 26 25 26 26
37 40 41 44 51 51 44 45 48 47 46 45 46 47 48 51 51 49 45 42 36 33 29 27 24 23 19 17 15 12 11 13 13 17 18 20 18 21 22 27 31 28 30
35 35 41 44 43 39 43 46 46 46 46 47 46 45 46 50 53 51 48 43 38 33 29 27 25 22 19 18 16 15 13 13 15 17 18 20 18 20 23 29 31 36 34
33 39 41 35 36 41 39 42 43 43 44 44 45 46 47 47 46 49 48 43 38 35 32 26 23 21 18 15 14 12 14 15 17 17 17 19 21 22 24 27 31 31 14
33 37 35 36 38 39 38 35 34 38 38 42 44 46 45 45 42 43 42 44 40 36 32 29 23 20 18 18 17 16 17 17 17 21 23 23 26 25 27 30 29 31 32
31 28 30 30 32 34 33 35 35 37 39 39 41 43 42 42 38 39 36 41 40 37 33 28 25 20 17 16 13 16 16 15 19 20 23 29 28 25 27 30 31 37 40
28 28 27 20 22 23 26 28 28 29 31 35 38 39 38 33 35 37 36 36 32 31 28 24 22 19 17 17 15 14 14 20 19 18 21 27 31 29 29 34 30 26 26
34 29 28 24 21 24 24 24 24 29 31 30 31 37 41 41 40 40 36 34 30 30 26 24 23 20 18 17 15 12 18 20 16 22 24 24 30 37 31 27 27 24 26
41 35 22 16 18 20 19 22 25 26 24 25 28 29 36 43 43 42 39 39 37 34 31 25 24 21 17 14 11 12 16 14 17 20 26 30 29 30 29 28 27 27 30
37 38 26 13 12 14 17 19 21 22 23 21 21 21 27 33 37 41 41 32 33 36 33 30 26 21 18 14 12 11 12 12 19 22 24 24 25 24 26 26 29 33 37
30 31 29 23 17 17 18 18 16 18 17 17 19 19 18 24 32 35 37 30 27 28 29 26 23 20 14 12 12 8 10 15 13 14 18 21 21 22 27 31 33 35 39
32 30 27 23 19 19 22 25 24 23 19 17 19 19 19 21 27 27 30 30 24 21 21 21 20 19 16 13 11 10 9 8 11 14 16 20 22 23 25 27 30 33 35
32 31 25 23 20 19 22 22 26 29 33 29 29 28 29 29 40 42 37 33 32 31 32 28 22 18 16 13 11 9 7 6 10 12 15 19 19 22 25 27 28 33 31
31 29 27 21 19 21 20 19 24 24 24 27 26 30 29 27 39 47 44 39 32 35 34 26 20 19 16 14 12 8 5 7 10 12 15 17 18 21 27 30 29 29 32
30 31 28 22 21 18 19 21 11 23 24 27 28 28 27 26 34 40 41 39 39 34 24 25 22 23 20 15 12 9 6 9 12 14 15 18 20 22 25 28 30 30 32
32 33 30 26 21 20 22 21 18 16 15 21 28 27 28 28 37 41 40 35 31 20 25 27 27 25 20 15 11 8 8 12 14 16 16 19 24 24 24 27 30 31 33
32 31 27 26 22 22 20 20 18 19 19 18 21 26 28 29 38 41 42 33 30 26 27 27 25 23 19 15 11 9 10 12 16 19 18 20 25 25 25 27 32 34 38
33 34 33 29 19 20 19 18 18 20 19 21 23 27 31 32 37 38 30 34 30 32 31 29 24 20 15 12 9 10 11 11 16 19 18 21 25 24 26 29 29 34 35
30 28 29 25 18 19 19 19 18 19 20 21 24 28 37 36 29 29 33 33 34 33 32 27 22 17 14 11 9 10 11 12 17 19 20 24 25 27 28 27 32 36 36
28 26 23 18 18 18 18 18 18 19 20 21 22 29 38 26 28 28 30 34 32 30 26 23 19 16 14 11 9 10 11 14 17 20 23 25 27 30 29 27 33 35 36
17 12 12 12 14 16 17 17 17 19 19 22 27 24 25 25 24 28 31 33 29 25 21 18 16 14 12 11 10 10 12 14 17 21 24 26 30 31 27 28 33 35 35
5 7 9 10 11 12 12 14 16 19 22 24 21 21 22 25 27 28 30 28 23 20 17 14 12 11 11 11 11 12 13 14 17 20 22 25 31 28 28 28 32 35 36
12 12 11 11 12 13 15 15 18 19 18 20 22 24 26 28 29 28 26 23 19 16 13 11 9 8 8 9 11 10 12 14 17 19 20 27 27 31 28 29 32 34 36
16 16 15 15 15 15 16 17 18 19 20 21 23 25 28 28 27 25 22 19 16 13 11 9 8 8 8 9 10 10 11 13 17 18 22 26 26 29 26 30 32 32 33
Wind_Direction
228 227 223 226 224 223 223 227 227 224 221 218 216 214 211 209 207 207 206 204 202 202 205 206 206 202 204 212 222 225 227 229 243 277 261 277 304 319 324 327 327 323 322
235 226 228 225 222 222 224 227 227 224 222 219 215 213 211 210 207 207 206 206 205 201 204 204 207 205 206 210 214 224 238 246 248 284 282 297 307 321 323 321 325 319 313
236 231 228 228 228 227 225 226 225 223 221 215 214 212 210 209 208 207 209 209 209 207 208 209 210 211 205 210 221 231 237 249 262 271 291 295 305 321 322 321 320 317 311
246 236 228 223 229 229 224 222 223 221 218 214 213 213 212 208 208 207 209 210 210 210 212 215 212 212 213 217 220 230 246 255 272 286 293 299 311 320 318 321 318 315 312
256 239 235 231 228 223 221 221 220 220 219 217 211 210 207 207 206 206 208 207 207 207 210 211 213 213 212 218 224 225 230 251 269 283 289 297 312 322 322 319 311 313 312
278 253 248 239 232 222 217 212 212 212 212 211 208 208 203 203 201 204 208 206 206 207 207 205 210 210 209 201 208 223 244 249 262 273 279 293 302 307 311 308 307 310 314
292 273 255 240 231 221 212 208 201 201 201 203 202 202 201 200 195 196 201 205 204 206 207 204 207 210 210 208 211 225 236 249 265 275 279 285 294 298 301 300 299 298 297
323 295 272 248 228 221 210 203 197 198 199 198 200 202 201 199 189 188 187 202 202 203 205 204 206 204 209 205 205 218 239 257 267 273 280 283 281 290 294 298 303 300 295
346 330 303 266 241 223 204 199 195 193 192 197 197 193 196 195 190 188 183 192 191 195 199 199 201 202 200 201 207 234 263 268 274 281 285 287 292 295 295 301 297 302 296
333 341 338 299 248 229 215 203 199 200 195 190 191 196 197 194 191 189 184 184 180 182 191 197 201 199 192 202 215 239 261 275 282 296 296 291 296 300 299 289 285 281 286
328 322 329 305 264 246 224 211 202 197 190 185 184 188 195 201 191 190 188 185 184 181 184 188 194 194 192 199 216 245 255 284 289 280 286 293 299 304 306 301 286 275 279
318 318 305 289 259 247 232 209 203 196 182 174 173 176 193 195 191 192 191 192 191 183 183 189 190 182 190 195 208 244 265 268 269 282 290 297 304 301 297 291 286 281 276
302 299 296 289 257 230 215 207 193 199 193 176 178 186 190 191 193 196 194 193 190 191 190 189 181 178 181 198 206 218 245 257 273 285 294 298 296 295 295 293 290 286 283
304 295 285 273 253 239 215 205 194 192 195 196 192 190 183 180 187 195 193 192 190 181 172 175 175 173 185 201 196 198 229 254 273 283 292 295 295 297 296 296 292 292 291
298 292 275 257 235 217 220 209 208 212 201 195 204 193 181 187 190 182 179 184 180 182 175 167 166 176 186 187 196 212 226 254 272 290 293 294 297 299 299 303 297 295 289
289 287 269 247 230 221 209 218 225 232 225 218 215 207 211 215 190 183 184 184 176 167 172 168 174 183 186 189 202 217 246 273 284 290 299 302 297 301 304 306 300 294 295
282 283 281 247 231 217 212 213 200 219 226 224 222 215 210 202 195 189 183 179 174 170 171 174 177 184 188 191 198 211 240 276 289 298 305 319 304 299 303 303 301 303 298
277 277 275 265 233 221 216 215 200 194 201 206 215 215 208 198 191 185 179 174 174 173 172 177 182 183 186 191 199 217 249 274 291 296 310 324 319 301 301 301 302 301 303
280 277 275 273 232 222 212 206 192 195 198 191 187 199 194 192 186 181 176 170 163 169 183 191 185 183 186 188 202 230 255 278 295 300 316 328 318 304 296 299 301 300 303
273 268 264 261 222 210 203 200 188 190 190 188 184 178 176 183 179 180 164 159 164 176 182 187 181 186 190 192 208 240 261 284 296 301 321 322 319 304 294 301 298 306 304
271 266 260 258 207 204 198 199 191 186 187 185 183 176 177 180 173 149 152 166 173 178 182 182 182 183 189 199 217 243 267 289 295 312 323 322 319 302 300 297 304 306 306
263 260 247 205 197 194 195 193 187 186 179 168 165 173 173 147 148 155 163 173 177 181 181 180 181 186 196 211 231 253 276 290 304 317 320 321 318 314 302 302 311 312 310
263 218 181 181 180 181 183 180 174 166 159 155 161 161 139 143 148 156 166 170 173 174 178 182 186 198 211 226 243 266 286 302 311 316 319 320 321 312 302 310 315 314 311
128 129 141 153 157 158 145 145 148 140 147 152 142 128 135 142 151 161 163 165 168 173 178 190 199 212 230 241 253 269 288 304 313 319 322 320 317 306 306 312 315 312 312
82 85 94 108 120 124 125 122 123 134 133 120 126 129 141 151 155 158 162 166 170 175 184 195 213 230 250 266 267 276 289 304 312 320 327 322 304 315 306 310 312 314 317
74 75 79 86 93 104 115 120 121 122 121 125 133 140 148 153 155 160 164 169 174 182 190 207 228 250 268 278 277 275 292 305 312 324 317 312 314 321 312 316 316 317 322